Location: Pine Mountain Observatory
(43.7910°N, 120.9377°W)
Time: 14:02:48
(UTC-07:00)

Courier 1B Rocket - All Passes

Search period start: 19 May 2019 00:00
Search period end: 29 May 2019 00:00
Orbit: 920 x 1202 km, 28.2° (Epoch: 17 May)

Date Brightness Start Highest point End Pass type
(mag) Time Alt. Az. Time Alt. Az. Time Alt. Az.
19 May - 17:41:41 10° S 17:44:53 13° SSE 17:48:02 10° SE daylight
19 May - 19:31:47 10° SW 19:37:24 22° S 19:42:51 10° SE daylight
19 May - 21:24:27 10° SW 21:30:01 23° S 21:35:23 10° SE visible
19 May - 23:19:02 10° SW 23:22:25 14° SSW 23:25:43 10° S visible
20 May - 18:31:14 10° SSW 18:36:30 20° SSE 18:41:41 10° ESE daylight
20 May - 20:23:18 10° SW 20:29:09 24° S 20:34:48 10° SE daylight
20 May - 22:17:01 10° SW 22:21:41 18° SSW 22:26:10 10° SSE visible
21 May - 17:31:01 10° SSW 17:35:38 17° SSE 17:40:12 10° SE daylight
21 May - 19:22:19 10° SW 19:28:14 24° S 19:34:00 10° SE daylight
21 May - 21:15:28 10° WSW 21:20:52 21° SSW 21:26:04 10° SSE visible
21 May - 23:12:01 10° SW 23:13:11 10° SSW 23:14:20 10° SSW visible
22 May - 16:31:25 10° S 16:34:47 13° SSE 16:38:09 10° SE daylight
22 May - 18:21:33 10° SW 18:27:19 23° S 18:33:00 10° ESE daylight
22 May - 20:14:10 10° SW 20:19:59 23° S 20:25:39 10° SE daylight
22 May - 22:08:40 10° SW 22:12:27 15° SSW 22:16:10 10° S visible
23 May - 17:21:02 10° SSW 17:26:24 20° SSE 17:31:45 10° ESE daylight
23 May - 19:13:03 10° SW 19:19:04 25° S 19:24:58 10° SE daylight
23 May - 21:06:44 10° WSW 21:11:40 18° SSW 21:16:28 10° SSE visible
24 May - 16:20:54 10° SSW 16:25:31 17° SSE 16:30:11 10° SE daylight
24 May - 18:12:08 10° SW 18:18:08 24° S 18:24:05 10° SE daylight
24 May - 20:05:13 10° WSW 20:10:48 22° SSW 20:16:16 10° SE daylight
24 May - 22:01:17 10° SW 22:03:11 11° SSW 22:05:04 10° S visible
25 May - 15:21:25 10° S 15:24:42 13° SSE 15:28:01 10° SE daylight
25 May - 17:11:26 10° SW 17:17:11 23° S 17:22:59 10° ESE daylight
25 May - 19:03:58 10° SW 19:09:53 24° S 19:15:44 10° SE daylight
25 May - 20:58:21 10° SW 21:02:25 15° SSW 21:06:25 10° S visible
26 May - 16:11:01 10° SSW 16:16:17 20° SSE 16:21:39 10° ESE daylight
26 May - 18:02:56 10° SW 18:08:57 25° S 18:14:58 10° SE daylight
26 May - 19:56:31 10° WSW 20:01:35 19° SSW 20:06:36 10° SSE daylight
27 May - 15:10:59 10° SSW 15:15:26 17° SSE 15:19:59 10° SE daylight
27 May - 17:02:06 10° SW 17:08:00 24° S 17:13:59 10° SE daylight
27 May - 18:55:05 10° WSW 19:00:41 22° SSW 19:06:17 10° SE daylight
27 May - 20:50:54 10° SW 20:53:08 11° SSW 20:55:21 10° S daylight
28 May - 14:11:40 10° S 14:14:39 13° SSE 14:17:41 10° SE daylight
28 May - 16:01:30 10° SW 16:07:05 23° S 16:12:48 10° ESE daylight
28 May - 17:53:55 10° SW 17:59:46 24° S 18:05:40 10° SE daylight
28 May - 19:48:11 10° SW 19:52:20 15° SSW 19:56:28 10° SSE daylight
